Probability
19 42 74 77 77 74 74 74 74 81 81 77 81 77 77 77 77 81 81 77 74 77 74 71 68 68 68 68 61 61 61 61 58 48 45 52 65 68 58 52 52 48 71
26 48 74 77 74 71 71 71 65 68 71 74 71 71 74 77 77 77 74 74 74 74 71 71 65 65 65 61 58 55 55 61 55 42 48 48 48 55 52 48 48 58 61
32 48 55 77 74 71 71 71 68 65 61 65 68 71 68 77 77 81 81 74 77 81 74 68 65 61 65 58 55 55 58 61 55 52 42 35 35 48 52 48 52 58 55
42 48 52 71 74 71 71 71 71 65 65 61 68 71 68 68 68 71 77 81 77 77 77 68 68 61 68 58 52 48 52 52 61 55 32 16 19 48 52 55 55 58 55
45 48 61 74 71 71 68 68 71 65 58 61 65 68 74 71 71 74 71 74 77 74 65 74 65 65 65 61 55 52 52 52 45 39 19 23 35 52 52 58 52 55 52
45 48 55 77 77 68 68 71 68 68 58 55 55 58 61 68 71 71 74 71 71 68 61 61 65 61 65 68 48 45 48 42 35 29 32 29 35 52 58 52 55 61 58
35 39 45 77 68 68 65 61 68 58 65 55 48 52 55 61 71 68 71 65 65 65 61 58 52 58 58 52 48 45 42 52 39 29 32 32 39 55 55 61 58 58 68
26 32 52 71 68 61 65 58 61 55 52 58 55 52 58 55 58 68 65 65 65 68 65 61 55 61 65 52 48 52 48 48 26 19 32 45 55 58 55 58 48 48 48
29 32 35 42 52 55 61 61 58 55 58 55 55 58 61 55 58 58 61 65 65 65 65 68 61 58 68 58 55 45 45 48 26 29 26 39 32 61 52 55 52 48 48
32 32 32 35 45 42 42 55 52 48 52 48 52 52 52 48 52 52 58 58 58 68 68 61 58 52 55 61 52 52 45 39 23 19 23 35 42 45 58 52 55 55 48
29 32 35 32 32 26 26 32 42 48 52 45 52 45 39 39 48 48 32 48 58 55 55 52 48 48 48 52 52 48 45 42 26 23 32 32 45 48 58 55 55 45 45
29 29 35 26 32 32 16 32 39 32 48 45 42 42 42 55 52 39 32 35 39 42 39 35 39 42 39 39 35 35 42 32 26 26 32 42 52 52 45 52 52 42 39
29 29 29 29 32 32 29 35 35 35 39 35 42 45 45 45 45 48 45 39 39 32 32 35 29 26 26 39 39 26 23 23 16 16 26 48 52 55 48 45 45 45 45
23 29 29 32 35 32 29 32 32 32 39 35 45 42 42 35 39 45 48 42 42 35 29 29 29 23 29 29 32 29 26 26 26 19 42 52 48 48 45 42 42 42 48
23 23 29 35 39 45 42 42 29 39 39 35 45 45 42 42 35 32 35 42 35 35 32 29 19 19 29 26 32 26 29 26 23 19 32 45 39 45 45 39 39 39 39
32 32 32 32 42 39 48 42 39 35 42 35 39 35 29 32 35 32 35 32 29 26 29 26 16 23 16 23 23 26 26 19 23 26 23 32 39 39 42 45 39 39 35
35 39 32 29 35 42 42 42 39 32 35 29 39 35 29 29 32 35 35 29 19 26 26 32 29 26 16 16 19 16 23 19 16 23 23 26 26 32 39 39 35 32 32
35 35 35 26 29 48 48 42 35 39 32 32 32 32 26 23 29 35 29 29 32 32 32 32 26 23 23 13 13 13 19 23 13 19 19 19 26 23 19 32 29 32 26
42 42 42 35 39 45 42 42 35 29 26 29 26 26 26 23 26 32 35 35 39 39 35 23 23 23 19 19 13 16 13 13 16 10 13 19 19 19 16 26 29 32 29
45 45 45 45 48 48 45 42 39 26 29 26 23 26 26 26 23 26 32 35 35 32 32 32 32 35 23 29 6 6 16 10 16 13 6 13 16 13 6 13 19 19 32
35 35 45 42 48 58 48 42 39 29 29 29 26 26 26 26 29 29 26 32 39 32 32 29 32 26 19 13 13 13 13 10 16 13 10 13 3 3 10 6 10 16 16
32 42 39 42 42 42 45 48 45 32 32 29 26 26 26 26 29 23 32 29 32 39 35 35 32 29 13 13 13 6 3 3 16 3 10 3 3 3 3 3 10 16 19
39 35 35 39 39 42 42 35 39 35 35 32 32 29 26 26 29 26 29 29 32 29 32 35 35 32 16 10 10 10 3 0 3 3 3 3 3 10 6 6 6 10 13
35 35 42 39 39 42 35 29 32 35 26 26 32 26 26 26 23 23 23 26 29 29 29 23 23 23 19 16 13 16 10 6 0 0 3 6 6 10 10 6 6 10 10
32 35 42 42 39 39 39 39 32 29 29 32 29 26 29 29 23 19 23 29 29 26 26 23 26 26 23 23 16 19 16 16 10 13 13 13 13 13 16 16 19 19 13
35 32 39 42 42 42 35 32 26 29 26 26 29 23 23 32 32 23 23 29 32 29 29 32 29 23 29 29 29 26 26 23 16 13 6 6 10 10 13 13 10 10 10
Height
5885 5884 5883 5882 5881 5880 5879 5879 5878 5877 5877 5876 5876 5875 5875 5875 5875 5875 5875 5875 5875 5876 5876 5877 5877 5878 5878 5878 5879 5879 5880 5880 5881 5882 5882 5882 5883 5883 5884 5885 5885 5886 5887
5884 5883 5882 5881 5880 5879 5879 5878 5877 5876 5876 5875 5875 5875 5874 5874 5874 5874 5874 5874 5875 5875 5875 5876 5876 5877 5877 5878 5878 5879 5879 5880 5881 5881 5882 5882 5883 5883 5884 5884 5885 5886 5886
5883 5882 5881 5881 5880 5879 5878 5877 5876 5876 5875 5874 5874 5874 5874 5873 5873 5873 5873 5874 5874 5875 5875 5875 5876 5876 5877 5877 5878 5878 5879 5879 5880 5881 5881 5882 5882 5883 5883 5884 5885 5885 5886
5882 5881 5881 5880 5879 5878 5877 5876 5875 5875 5874 5874 5873 5873 5873 5872 5872 5872 5872 5873 5873 5874 5874 5874 5874 5875 5876 5876 5877 5877 5878 5879 5879 5880 5881 5881 5882 5882 5883 5884 5884 5885 5885
5881 5880 5879 5879 5878 5877 5876 5875 5874 5874 5873 5873 5872 5872 5872 5871 5871 5871 5871 5872 5872 5873 5873 5873 5873 5874 5875 5875 5876 5876 5877 5878 5878 5879 5880 5880 5881 5882 5882 5883 5883 5884 5884
5880 5879 5878 5878 5877 5876 5875 5874 5873 5873 5872 5872 5871 5871 5870 5870 5870 5870 5870 5871 5871 5872 5872 5873 5873 5873 5874 5874 5875 5875 5876 5877 5877 5878 5878 5879 5880 5881 5881 5882 5882 5883 5884
5879 5878 5877 5876 5876 5875 5874 5873 5872 5871 5871 5870 5870 5869 5869 5869 5869 5869 5869 5869 5870 5870 5871 5871 5872 5872 5873 5873 5874 5874 5875 5875 5876 5876 5877 5878 5879 5879 5880 5881 5881 5882 5883
5877 5877 5876 5875 5874 5873 5872 5871 5871 5870 5869 5869 5868 5868 5868 5867 5867 5867 5868 5868 5868 5869 5869 5870 5870 5871 5872 5872 5872 5873 5873 5874 5875 5875 5875 5876 5877 5878 5879 5879 5880 5881 5882
5875 5875 5874 5873 5872 5871 5870 5870 5869 5868 5867 5867 5867 5866 5866 5866 5866 5866 5866 5866 5867 5867 5867 5868 5868 5869 5870 5870 5871 5871 5872 5872 5873 5873 5874 5875 5876 5876 5877 5878 5879 5880 5880
5873 5873 5872 5871 5870 5869 5868 5867 5867 5866 5866 5865 5865 5864 5864 5864 5864 5864 5864 5864 5865 5865 5866 5866 5867 5867 5868 5868 5869 5870 5870 5870 5871 5871 5872 5873 5874 5875 5875 5876 5877 5878 5879
5871 5871 5870 5869 5868 5867 5866 5865 5865 5864 5863 5863 5863 5862 5862 5862 5862 5862 5862 5862 5862 5863 5863 5864 5864 5865 5865 5866 5867 5867 5868 5868 5869 5869 5870 5871 5872 5872 5873 5874 5875 5876 5877
5869 5868 5868 5867 5866 5865 5864 5863 5862 5862 5861 5861 5861 5860 5860 5860 5859 5859 5859 5859 5860 5860 5860 5861 5861 5862 5863 5863 5864 5865 5865 5866 5866 5867 5868 5869 5869 5870 5871 5872 5873 5873 5874
5867 5866 5866 5865 5864 5863 5862 5861 5860 5859 5859 5858 5858 5858 5858 5858 5857 5857 5857 5857 5857 5857 5857 5858 5858 5859 5860 5860 5861 5862 5863 5863 5864 5864 5865 5866 5866 5867 5868 5869 5870 5870 5871
5864 5863 5863 5863 5862 5861 5860 5859 5858 5857 5857 5856 5856 5856 5856 5855 5855 5854 5854 5854 5854 5854 5854 5855 5855 5856 5857 5857 5858 5859 5860 5860 5861 5862 5862 5863 5864 5864 5865 5866 5866 5867 5868
5862 5861 5861 5861 5860 5859 5858 5858 5857 5856 5855 5854 5854 5854 5854 5853 5852 5852 5852 5851 5851 5851 5852 5852 5852 5853 5854 5854 5855 5855 5856 5857 5858 5858 5859 5860 5861 5861 5862 5862 5863 5864 5864
5860 5859 5858 5858 5857 5857 5856 5856 5855 5854 5853 5853 5853 5852 5851 5850 5850 5849 5849 5848 5848 5848 5849 5850 5850 5850 5851 5851 5852 5852 5852 5853 5854 5855 5856 5856 5857 5858 5858 5859 5859 5860 5861
5857 5857 5856 5856 5855 5855 5854 5853 5853 5852 5851 5851 5850 5849 5849 5848 5847 5846 5846 5846 5845 5846 5846 5846 5847 5847 5847 5848 5848 5848 5849 5849 5850 5851 5852 5852 5853 5854 5855 5855 5856 5857 5857
5855 5855 5854 5854 5853 5853 5852 5851 5851 5850 5850 5849 5848 5847 5846 5845 5845 5844 5843 5843 5843 5843 5843 5843 5843 5844 5844 5844 5844 5845 5845 5845 5846 5846 5847 5848 5849 5849 5850 5851 5852 5853 5853
5853 5853 5852 5852 5851 5851 5850 5849 5849 5848 5847 5846 5846 5845 5844 5843 5842 5841 5841 5840 5840 5839 5839 5839 5840 5840 5840 5840 5840 5840 5841 5841 5841 5842 5842 5843 5844 5845 5845 5846 5847 5848 5848
5852 5851 5850 5850 5849 5848 5848 5847 5846 5845 5844 5844 5843 5842 5841 5840 5839 5838 5838 5837 5836 5836 5835 5835 5835 5835 5836 5835 5835 5836 5836 5836 5836 5837 5837 5838 5839 5839 5840 5841 5842 5842 5843
5850 5849 5848 5848 5847 5846 5845 5844 5843 5842 5842 5841 5840 5839 5838 5837 5836 5835 5834 5833 5833 5832 5832 5831 5831 5831 5830 5830 5830 5831 5831 5831 5831 5832 5832 5833 5833 5834 5834 5835 5836 5836 5837
5847 5847 5846 5845 5844 5843 5842 5841 5840 5839 5839 5838 5837 5836 5835 5834 5833 5832 5831 5829 5828 5828 5828 5827 5826 5826 5825 5825 5825 5825 5826 5827 5826 5827 5827 5828 5828 5828 5829 5829 5830 5831 5831
5845 5844 5843 5842 5841 5839 5838 5837 5837 5836 5835 5835 5834 5833 5832 5831 5829 5828 5827 5825 5824 5823 5823 5822 5822 5821 5820 5820 5820 5820 5821 5821 5821 5822 5822 5822 5822 5823 5823 5824 5824 5825 5825
5842 5841 5840 5839 5838 5836 5835 5834 5833 5833 5832 5831 5830 5829 5828 5826 5825 5824 5822 5821 5820 5819 5818 5817 5817 5816 5816 5815 5815 5815 5815 5815 5816 5816 5817 5817 5817 5817 5818 5818 5818 5819 5819
5839 5838 5837 5836 5835 5833 5832 5831 5830 5829 5828 5827 5826 5825 5823 5822 5821 5819 5818 5817 5816 5814 5813 5812 5811 5811 5810 5810 5810 5809 5810 5810 5810 5811 5811 5811 5811 5811 5812 5812 5812 5813 5813
5836 5835 5834 5833 5832 5830 5829 5828 5827 5826 5825 5823 5822 5820 5819 5817 5816 5815 5813 5812 5811 5810 5808 5807 5806 5805 5805 5805 5804 5804 5804 5805 5805 5805 5805 5805 5805 5805 5805 5806 5806 5806 5806
Wind_Speed
3 3 3 3 3 3 3 3 3 3 2 1 1 1 2 2 2 3 3 3 4 4 4 4 4 4 5 5 4 4 3 3 3 5 5 5 6 7 7 7 7 8 9
3 3 3 3 3 3 3 3 3 3 2 1 1 1 1 2 2 2 3 3 4 5 4 4 4 4 5 5 4 4 3 4 4 5 4 5 6 7 7 7 6 7 9
4 4 4 4 3 3 3 4 4 3 2 1 1 2 1 2 2 3 3 4 4 5 4 4 4 5 5 4 5 5 4 4 5 5 5 5 6 6 6 7 7 8 8
5 5 4 4 4 4 4 4 4 3 3 2 2 2 2 2 2 3 3 4 4 5 5 4 4 5 6 5 5 5 5 5 5 6 6 6 6 6 7 8 8 8 9
6 5 5 5 5 5 5 5 4 4 3 3 2 3 3 3 3 3 4 4 4 5 5 5 6 6 5 6 6 6 6 6 5 6 6 6 6 7 7 7 7 8 8
6 6 6 6 6 5 5 5 5 5 4 4 3 3 3 3 3 3 4 5 5 5 5 6 6 6 6 7 7 6 7 7 6 6 7 7 7 7 8 8 7 8 8
8 7 7 7 6 6 5 5 6 5 5 4 4 4 3 3 3 4 5 5 6 6 6 6 7 6 7 7 8 8 7 7 7 8 8 8 8 8 8 8 7 8 8
8 8 8 8 7 7 6 6 6 5 5 5 5 4 4 4 4 4 5 5 6 7 7 7 7 8 8 8 8 8 8 8 8 9 9 9 9 9 8 8 8 8 9
8 8 9 8 7 7 7 7 7 6 5 6 6 5 5 5 5 5 5 6 7 8 8 7 8 9 9 9 9 9 9 8 9 10 10 10 10 9 9 9 9 8 9
9 8 9 8 8 8 7 8 7 6 6 6 7 6 6 6 6 6 6 6 7 8 9 9 9 10 10 10 10 9 9 10 10 10 10 10 11 11 11 10 10 10 10
9 8 8 8 8 8 7 7 8 8 7 6 6 6 7 7 7 7 7 8 8 9 10 10 10 11 10 11 11 11 10 10 11 11 11 11 11 12 12 12 11 11 11
10 9 8 9 8 8 8 8 8 8 7 6 7 7 7 8 8 8 8 9 9 10 11 10 11 11 11 12 12 12 12 12 12 12 12 12 12 12 13 14 13 13 13
10 9 9 9 8 9 9 8 8 8 7 7 7 7 8 8 8 9 10 10 11 11 11 12 11 11 12 12 13 13 13 13 13 14 13 14 13 13 13 15 14 14 14
10 9 10 10 9 9 8 8 7 7 8 7 7 7 8 8 9 10 10 11 11 12 12 12 13 12 12 13 13 14 15 15 15 15 15 15 15 14 14 15 15 16 15
9 9 10 10 10 9 9 9 8 8 7 7 7 7 8 9 9 10 10 11 11 12 13 13 14 14 14 14 14 15 16 16 16 16 16 16 15 16 15 17 16 17 17
10 10 11 10 10 9 9 9 9 8 8 8 9 8 9 9 10 10 10 10 11 12 13 13 14 15 15 15 15 15 16 16 17 18 18 17 17 16 17 17 18 18 19
10 10 10 9 9 9 8 8 8 8 9 10 10 10 10 10 10 10 10 11 11 11 12 13 15 15 15 16 16 16 16 17 18 18 19 18 18 18 18 18 19 20 20
10 10 10 9 9 9 9 8 9 9 10 10 10 10 10 11 11 10 11 11 11 12 13 14 15 15 16 16 17 17 18 18 18 19 18 19 19 19 19 20 20 20 21
9 10 9 9 9 9 10 10 11 11 11 11 11 11 11 11 11 11 11 11 12 13 14 14 15 16 17 17 18 19 19 19 19 19 19 20 20 21 21 22 22 22 22
9 10 10 10 10 11 11 11 11 12 12 11 12 12 12 12 12 12 12 12 13 13 14 15 15 16 17 18 19 20 19 19 19 19 20 20 21 21 22 23 23 23 24
10 10 10 11 11 12 12 12 12 12 12 13 12 12 13 13 13 13 14 14 14 14 15 15 16 17 18 19 19 19 19 19 19 19 20 20 20 21 22 23 23 24 25
11 11 11 11 12 13 13 13 13 13 13 12 13 13 14 14 14 14 14 15 15 15 15 16 17 17 18 19 19 19 20 20 20 20 20 20 20 21 22 22 23 23 24
11 11 11 12 12 12 12 13 13 13 14 14 14 14 14 14 14 15 14 15 15 16 16 17 17 18 18 18 19 19 20 21 21 21 21 21 21 21 22 23 22 23 23
11 11 12 12 12 12 12 13 13 13 14 15 15 15 15 15 15 14 14 14 15 16 17 17 18 17 17 18 19 19 20 21 21 21 22 22 21 22 22 22 23 23 24
12 12 13 13 12 12 13 13 13 13 14 15 16 16 15 15 16 15 15 15 15 16 16 17 17 18 18 18 19 19 19 20 21 21 21 22 22 23 23 22 22 22 23
13 13 13 13 13 13 13 14 14 15 16 16 16 16 16 16 16 16 16 16 16 16 16 17 18 18 18 18 18 19 19 19 20 20 20 20 21 22 23 23 22 22 23
Wind_Direction
17 16 10 1 358 350 345 346 351 353 339 303 233 207 163 169 173 175 181 185 181 174 180 186 188 193 190 194 187 191 189 188 192 184 193 206 208 200 204 212 206 209 208
3 353 347 341 335 331 328 335 341 346 328 286 246 228 212 211 210 208 200 197 192 192 192 192 195 197 196 199 197 199 202 191 191 194 205 209 206 203 205 208 207 212 210
338 331 323 330 326 324 321 328 333 336 322 292 260 245 231 228 228 230 222 205 197 202 208 211 210 201 205 211 220 219 217 201 198 205 215 217 208 210 213 214 210 209 207
328 325 320 317 314 314 315 321 329 326 317 297 276 253 248 249 247 235 224 205 203 207 213 218 213 211 217 221 227 227 226 213 208 210 216 219 217 215 214 213 216 220 219
321 318 318 311 304 305 309 309 315 313 307 288 274 263 265 265 254 236 232 213 210 214 217 214 209 216 225 229 235 235 223 218 219 222 216 216 215 215 215 217 222 224 224
317 313 311 307 303 301 301 303 302 300 295 281 277 275 268 264 262 250 241 225 218 219 219 219 223 225 231 236 234 229 229 225 225 222 222 223 218 217 222 223 224 224 223
313 308 310 305 300 298 297 298 297 295 288 277 276 275 272 269 266 255 249 235 230 229 230 231 231 238 233 235 235 236 238 228 226 226 229 229 230 228 227 226 228 221 224
307 299 302 306 305 302 298 297 293 290 288 279 274 275 273 269 267 259 254 246 240 238 235 236 239 242 242 238 242 244 244 235 230 229 230 229 228 230 231 231 226 227 227
302 295 298 299 300 305 303 296 289 289 290 282 276 277 273 268 269 265 258 252 246 242 239 246 243 244 245 244 246 248 249 243 235 235 234 233 230 230 231 231 228 232 235
299 295 297 295 301 305 302 294 288 284 288 284 276 273 272 269 267 268 258 252 247 247 246 245 243 244 248 250 248 248 250 245 241 243 239 237 235 233 235 234 234 234 235
296 295 294 295 296 303 299 292 288 283 286 287 281 279 274 270 267 266 261 255 250 252 253 249 245 245 245 247 246 248 250 249 246 245 242 240 240 236 236 236 237 236 235
293 292 293 295 298 300 299 296 290 286 284 286 285 284 278 271 267 262 259 258 257 256 257 254 251 247 247 245 244 248 249 250 246 244 246 243 241 240 239 237 238 239 238
287 286 288 295 296 299 299 296 295 288 282 279 281 287 284 275 272 266 264 262 260 257 256 254 253 250 249 248 249 247 246 248 247 246 248 247 246 244 243 240 242 241 240
283 282 284 291 294 295 294 297 297 293 289 286 285 291 291 282 276 273 271 267 261 256 255 253 251 250 249 251 252 250 248 247 247 249 247 249 250 247 246 244 245 247 244
282 282 280 286 291 292 290 295 294 292 290 292 295 297 292 286 283 279 274 269 262 258 255 254 252 254 251 250 251 250 248 247 246 247 248 248 249 251 251 248 249 251 249
277 279 279 285 289 292 290 289 291 293 290 293 294 297 293 289 289 280 274 271 264 256 253 254 254 255 254 254 252 249 249 248 247 248 248 247 248 251 253 251 251 251 251
276 279 279 287 288 289 286 287 288 291 289 291 294 297 299 295 290 283 275 272 272 264 261 260 257 258 258 257 255 253 254 254 252 251 250 249 249 251 252 253 252 252 252
276 276 275 277 286 288 288 287 289 288 287 290 292 295 298 298 293 286 281 277 274 268 265 265 264 259 258 257 257 258 259 259 256 252 251 251 252 253 252 254 255 255 254
281 280 276 277 283 287 288 286 284 285 283 282 286 292 295 295 294 288 283 281 277 275 271 269 268 265 261 259 258 258 261 261 261 257 255 255 255 254 254 254 256 258 257
279 279 278 280 284 287 286 285 285 284 281 279 282 288 293 295 295 291 286 282 280 278 275 273 272 269 266 262 258 258 260 261 260 259 258 259 259 257 256 256 258 258 258
278 277 276 278 281 284 284 283 283 283 281 280 283 286 290 293 295 293 290 287 282 278 275 273 272 271 269 267 261 259 260 261 260 259 260 261 260 259 258 258 259 258 258
281 279 277 279 281 283 283 282 280 282 281 281 284 284 288 293 295 295 292 288 283 281 278 276 273 272 270 266 262 261 260 260 261 261 262 262 261 260 259 258 259 258 257
285 282 280 280 282 284 285 283 279 279 278 279 281 282 287 292 294 294 294 289 285 283 281 278 274 271 266 263 262 260 259 260 263 262 263 263 262 261 261 260 258 257 256
284 284 285 283 285 286 286 286 281 282 283 284 282 282 284 289 293 293 292 289 287 286 284 279 275 271 267 264 262 260 260 261 263 263 263 264 263 261 261 260 260 260 256
281 284 285 288 287 286 287 286 284 283 284 284 283 282 282 284 289 292 290 289 288 287 285 281 276 272 267 264 263 261 260 262 263 264 265 264 262 262 262 261 261 261 260
281 282 285 289 292 291 288 287 285 284 285 285 285 283 283 283 287 290 288 287 287 288 287 283 279 275 269 265 264 263 260 261 263 263 263 265 264 262 262 262 262 262 261